Aswan, Egypt

6:40 PM EET on February 19, 2018 (GMT +0200)
Aswan

Weather History for HESN - January, 2014

Change the Weather History Date:

Wednesday, January 15, 2014

  Actual Average Record
Temperature  
Mean Temperature 66 °F -  
Max Temperature 79 °F 72 °F 84 °F (2001)
Min Temperature 52 °F 50 °F 44 °F (2008)
Growing Degree Days 16 (Base 50)    
Moisture  
Dew Point 33 °F    
Average Humidity 29    
Maximum Humidity 51    
Minimum Humidity 12    
Precipitation  
Precipitation 0.00 in 0.00 in - ()
Sea Level Pressure  
Sea Level Pressure 30.03 in    
Wind  
Wind Speed 5 mph ()    
Max Wind Speed 8 mph    
Max Gust Speed -    
Visibility 6.0 miles    
Events      
Averages and records for this station are not official NWS values.
T = Trace of Precipitation, MM = Missing Value Source: Averaged Metar Reports

Daily Weather History Graph

Daily Weather History Graph

Search for Another Location

Airport or City:

Trip Planner

Search our weather history database for the weather conditions in past years. The results will help you decide how hot, cold, wet, or windy it might be!

Date:

Astronomy

Jan. 15, 2014 Rise Set
Actual Time 6:33 AM EET 5:22 PM EET
Civil Twilight 6:09 AM EET 5:47 PM EET
Nautical Twilight 5:41 AM EET 6:15 PM EET
Astronomical Twilight 5:14 AM EET 6:42 PM EET
Moon 4:57 PM EET (1/15) 5:40 AM EET (1/15)
Length of Visible Light 11h 37m
Length of Day
10h 49m
Waxing Gibbous, 99% of the Moon is Illuminated
Jan 15
Waxing Gibbous
Jan 16
Full
Jan 24
Last Quarter
Jan 30
New
Feb 6
First Quarter

Hourly Weather History & Observations

Time (EET) Temp. Dew Point Humidity Pressure Visibility Wind Dir Wind Speed Gust Speed Precip Events Conditions
12:00 AM 62.6 °F 33.8 °F 34% 30.01 in - NW 5.8 mph - N/A   Clear
1:00 AM 60.8 °F 30.2 °F 31% 30.01 in - NNW 5.8 mph - N/A   Clear
2:00 AM 57 °F 31 °F 24% 30.01 in 6 mi North 5.8 mph - -  
2:00 AM 57.2 °F 30.2 °F 36% 30.01 in - North 5.8 mph - N/A   Clear
3:00 AM 57.2 °F 32.0 °F 38% 30.01 in - North 4.6 mph - N/A   Clear
4:00 AM 55.4 °F 33.8 °F 44% 30.01 in - North 4.6 mph - N/A   Clear
5:00 AM 56 °F 36 °F 35% 30.03 in 6 mi North 5.8 mph - -  
5:00 AM 55.4 °F 35.6 °F 47% 30.01 in - North 5.8 mph - N/A   Clear
6:00 AM 55.4 °F 35.6 °F 47% 30.04 in - North 6.9 mph - N/A   Clear
7:00 AM 53.6 °F 35.6 °F 51% 30.04 in - North 3.5 mph - N/A   Clear
8:00 AM 56 °F 37 °F 37% 30.07 in 6 mi North 5.8 mph - -  
8:00 AM 57.2 °F 37.4 °F 48% 30.06 in - North 5.8 mph - N/A   Clear
9:00 AM 60.8 °F 37.4 °F 42% 30.06 in - North 6.9 mph - N/A   Clear
10:00 AM 66.2 °F 35.6 °F 32% 30.09 in - North 8.1 mph - N/A   Clear
11:00 AM 69 °F 36 °F 19% 30.06 in 6 mi North 6.9 mph - -  
11:00 AM 68.0 °F 35.6 °F 30% 30.06 in - North 6.9 mph - N/A   Clear
12:00 PM 73.4 °F 33.8 °F 23% 30.04 in - North 6.9 mph - N/A   Clear
1:00 PM 77.0 °F 33.8 °F 21% 30.01 in - North 5.8 mph - N/A   Clear
2:00 PM 78 °F 35 °F 12% 29.99 in 6 mi North 4.6 mph - -  
2:00 PM 78.8 °F 35.6 °F 21% 30.01 in - North 4.6 mph - N/A   Clear
3:00 PM 78.8 °F 35.6 °F 21% 29.98 in - North 3.5 mph - N/A   Clear
4:00 PM 78.8 °F 35.6 °F 21% 29.98 in - NNW 5.8 mph - N/A   Clear
5:00 PM 77 °F 34 °F 12% 29.99 in 6 mi NNW 5.8 mph - -  
5:00 PM 77.0 °F 33.8 °F 21% 30.01 in - NNW 5.8 mph - N/A   Clear
6:00 PM 73.4 °F 32.0 °F 22% 30.01 in - North 6.9 mph - N/A   Clear
7:00 PM 71.6 °F 32.0 °F 23% 30.01 in - North 6.9 mph - N/A   Clear
8:00 PM 70 °F 32 °F 14% 30.02 in 6 mi NNW 6.9 mph - -  
8:00 PM 69.8 °F 32.0 °F 25% 30.04 in - NNW 6.9 mph - N/A   Clear
9:00 PM 66.2 °F 30.2 °F 26% 30.04 in - North 4.6 mph - N/A   Clear
10:00 PM 64.4 °F 26.6 °F 24% 30.04 in - North 4.6 mph - N/A   Clear
11:00 PM 63 °F 26 °F 14% 30.04 in 6 mi NNE 5.8 mph - -  
11:00 PM 62.6 °F 24.8 °F 24% 30.04 in - NNE 5.8 mph - N/A   Clear